Location: Cotdoussan
(43.0366°N, 0.0068°E)
Time: 00:25:41
(UTC+00:00)

ARIANE 6 FM1 Upper Stage - Visible Passes

Search period start: 25 January 2026 00:00
Search period end: 04 February 2026 00:00
Orbit: 522 x 610 km, 62.0° (Epoch: 24 January)

Date Brightness Start Highest point End Pass type
(mag) Time Alt. Az. Time Alt. Az. Time Alt. Az.
25 Jan 3.0 17:32:14 10° SSW 17:36:10 47° ESE 17:40:03 10° NE visible
25 Jan 4.6 19:12:09 10° W 19:15:23 22° NW 19:16:40 19° NNW visible
26 Jan 2.6 17:32:10 10° SSW 17:36:15 72° SE 17:40:15 10° NE visible
26 Jan 4.9 19:12:57 10° WNW 19:15:41 17° NW 19:17:10 14° N visible
27 Jan 2.8 17:32:16 10° SW 17:36:21 76° NW 17:40:22 10° NE visible
27 Jan 5.1 19:13:58 10° WNW 19:16:01 13° NNW 19:17:36 11° N visible
28 Jan 3.3 17:32:30 10° SW 17:36:29 51° NW 17:40:25 10° NNE visible
28 Jan 5.3 19:15:26 10° NW 19:16:22 11° NNW 19:17:18 10° NNW visible
29 Jan 3.9 17:32:52 10° WSW 17:36:38 36° NW 17:40:23 10° NNE visible
